sat.trackr.live / text

‹ back to catalog

STARLINK-37959

NORAD 69696 · 2026-145V

PAYLOAD ACTIVE UNKNOWN

§ Identity

Operator
Country
US
Launch date
2026-06-25
Launch site
AFWTR
Launch vehicle
Mass (kg)
RCS (m²)

Purposes: comms

External: N2YO · Heavens-Above · Gunter

§ Orbital elements

Epoch: 2026-09-19T08:56:49.682400Z

Period
93.91 min
Inclination
97.2860°
Eccentricity
0.0002101
Mean motion
15.33447289 rev/d
Perigee alt
464.1 km
Apogee alt
467.0 km
Semi-major
6,843.7 km
B*
2.6379e-4
RAAN
109.1037°
Arg perigee
76.0517°
Mean anomaly
284.0960°
Rev number
1,337

§ Raw data

STARLINK-379591 69696U 26145V   26262.37279725  .00008452  00000+0  26379-3 0  99922 69696  97.2860 109.1037 0002101  76.0517 284.0960 15.33447289 13370

JSON: /api/v1/satellites/69696 · /tle

For live sub-satellite position, see the globe view (requires WebGL).

§ Visibility from observer

Set your observer location to see the next 7 days of passes ≥ 10°. The values pass through the URL so the page stays shareable.

No JS? Fill the form by hand. The geolocation button needs JavaScript.